Burlington, IA

6:47 PM CDT on July 24, 2017 (GMT -0500)
Burlington Regional

Weather History for KBRL - November, 2013

Change the Weather History Date:

Wednesday, November 20, 2013

  Actual Average Record
Temperature  
Mean Temperature 40 °F 40 °F  
Max Temperature 42 °F 49 °F 76 °F (1913)
Min Temperature 37 °F 31 °F 7 °F (1914)
Degree Days  
Heating Degree Days 25 25  
Month to date heating degree days 442 402  
Since 1 July heating degree days 866 796  
Cooling Degree Days 0 0  
Month to date cooling degree days 0 0  
Year to date cooling degree days 1115 1206  
Moisture  
Dew Point 31 °F    
Average Humidity 82    
Maximum Humidity 100    
Minimum Humidity 64    
Precipitation  
Precipitation 0.45 in 0.08 in 1.59 in (1992)
Month to date precipitation 1.08 1.68  
Year to date precipitation 32.33 35.57  
Sea Level Pressure  
Sea Level Pressure 30.07 in    
Wind  
Wind Speed 10 mph (SSE)    
Max Wind Speed 20 mph    
Max Gust Speed 25 mph    
Visibility 6 miles    
Events Rain , Thunderstorm    
T = Trace of Precipitation, MM = Missing Value Source: NWS Daily Summary

Daily Weather History Graph

Daily Weather History Graph

Search for Another Location

Airport or City:

Trip Planner

Search our weather history database for the weather conditions in past years. The results will help you decide how hot, cold, wet, or windy it might be!

Date:

Astronomy

Nov. 20, 2013 Rise Set
Actual Time 6:57 AM CST 4:42 PM CST
Civil Twilight 6:27 AM CST 5:12 PM CST
Nautical Twilight 5:54 AM CST 5:45 PM CST
Astronomical Twilight 5:21 AM CST 6:18 PM CST
Moon 7:25 PM CST (11/20) 9:22 AM CST (11/20)
Length of Visible Light 10h 44m
Length of Day
9h 44m
Waning Gibbous, 91% of the Moon is Illuminated
Nov 20
Waning Gibbous
Nov 25
Last Quarter
Dec 2
New
Dec 9
First Quarter
Dec 17
Full

Hourly Weather History & Observations

Time (CST) Temp. Windchill Dew Point Humidity Pressure Visibility Wind Dir Wind Speed Gust Speed Precip Events Conditions
12:53 AM 37.0 °F 31.0 °F 28.0 °F 70% 30.19 in 10.0 mi SSE 8.1 mph - N/A   Scattered Clouds
1:53 AM 37.9 °F 30.5 °F 28.0 °F 68% 30.18 in 10.0 mi SSE 11.5 mph - N/A   Mostly Cloudy
2:53 AM 37.9 °F 30.5 °F 28.0 °F 68% 30.17 in 10.0 mi SE 11.5 mph - N/A   Scattered Clouds
3:53 AM 37.0 °F 29.3 °F 28.0 °F 70% 30.15 in 10.0 mi SSE 11.5 mph - N/A   Clear
4:53 AM 37.0 °F 28.5 °F 28.0 °F 70% 30.13 in 10.0 mi SSE 13.8 mph - N/A   Overcast
5:53 AM 37.0 °F 29.3 °F 28.0 °F 70% 30.12 in 10.0 mi SSE 11.5 mph - N/A   Partly Cloudy
6:53 AM 37.0 °F 28.1 °F 28.0 °F 70% 30.13 in 10.0 mi SSE 15.0 mph - N/A   Mostly Cloudy
7:53 AM 37.0 °F 28.5 °F 28.0 °F 70% 30.15 in 10.0 mi South 13.8 mph 23.0 mph N/A   Overcast
8:53 AM 37.0 °F 29.3 °F 28.9 °F 73% 30.17 in 10.0 mi SSE 11.5 mph - N/A   Overcast
9:53 AM 37.9 °F 30.9 °F 28.9 °F 70% 30.16 in 10.0 mi SSE 10.4 mph - N/A   Overcast
10:53 AM 39.0 °F 31.0 °F 28.9 °F 67% 30.14 in 10.0 mi SSE 13.8 mph - N/A   Overcast
11:53 AM 37.9 °F 30.5 °F 33.1 °F 83% 30.09 in 4.0 mi SSE 11.5 mph - 0.01 in Rain Light Rain
12:53 PM 37.0 °F 27.4 °F 34.0 °F 89% 30.05 in 2.5 mi SSE 17.3 mph 25.3 mph 0.10 in Rain Rain
1:11 PM 37.4 °F 28.2 °F 35.6 °F 93% 30.03 in 5.0 mi South 16.1 mph 23.0 mph 0.04 in Rain Light Rain
1:51 PM 37.4 °F 30.8 °F - N/A% 30.03 in 2.5 mi South 9.2 mph - 0.11 in Rain Rain
1:53 PM 37.0 °F 30.4 °F - N/A% 30.04 in 2.5 mi South 9.2 mph - 0.12 in Rain Rain
2:05 PM 37.4 °F 30.3 °F - N/A% 30.01 in 3.0 mi SSE 10.4 mph - 0.03 in Rain Rain
2:13 PM 37.4 °F 32.1 °F - N/A% 30.02 in 2.5 mi South 6.9 mph - 0.05 in Rain Rain
2:53 PM 37.0 °F 31.0 °F - N/A% 30.02 in 4.0 mi SSE 8.1 mph - 0.13 in Rain Light Rain
3:04 PM 37.4 °F 31.4 °F - N/A% 30.01 in 6.0 mi SSE 8.1 mph - 0.00 in Rain Light Rain
3:53 PM 37.9 °F 34.4 °F - N/A% 30.03 in 4.0 mi SE 4.6 mph - 0.01 in Rain Light Rain
4:53 PM 37.9 °F 33.5 °F - N/A% 30.03 in 5.0 mi ESE 5.8 mph - 0.06 in Rain Light Rain
5:10 PM 37.4 °F 32.8 °F - N/A% 30.03 in 5.0 mi SE 5.8 mph - 0.01 in Rain , Thunderstorm Light Rain
5:19 PM 37.4 °F 32.1 °F - N/A% 30.02 in 3.0 mi ESE 6.9 mph - 0.02 in Rain Light Rain
5:33 PM 37.4 °F 30.3 °F - N/A% 29.99 in 5.0 mi ESE 10.4 mph - 0.02 in Rain Light Rain
5:53 PM 37.9 °F 30.9 °F - N/A% 30.03 in 6.0 mi ESE 10.4 mph - 0.02 in   Haze
6:10 PM 37.4 °F 32.1 °F - N/A% 30.05 in 6.0 mi SSE 6.9 mph - N/A   Haze
6:35 PM 37.4 °F 30.3 °F - N/A% 30.04 in 7.0 mi SE 10.4 mph - N/A   Overcast
6:53 PM 37.9 °F 31.5 °F - N/A% 30.06 in 6.0 mi SSE 9.2 mph - N/A   Haze
7:41 PM 39.2 °F 33.6 °F - N/A% 30.04 in 6.0 mi SSE 8.1 mph - N/A   Haze
7:53 PM 39.0 °F 34.8 °F - N/A% 30.06 in 6.0 mi SSE 5.8 mph - N/A   Haze
8:05 PM 39.2 °F 35.0 °F - N/A% 30.05 in 6.0 mi SSE 5.8 mph - N/A   Haze
8:53 PM 39.0 °F 34.8 °F - N/A% 30.06 in 6.0 mi SSE 5.8 mph - N/A   Haze
9:53 PM 39.9 °F 35.8 °F 39.9 °F 100% 30.06 in 6.0 mi SSE 5.8 mph - N/A   Overcast
10:53 PM 39.9 °F 35.1 °F 39.9 °F 100% 30.06 in 7.0 mi SSE 6.9 mph - N/A   Overcast
11:53 PM 42.1 °F 37.1 °F 39.0 °F 89% 30.06 in 9.0 mi South 8.1 mph - N/A   Overcast